map of LOS home
Great Circle Mapper logo
LOS - Airport
Location
City:  Lagos, Nigeria
Name:Murtala Muhammed International Airport
ICAO / IATA:DNMM / LOS

Details
Type:Airport (Aerodrome, Airfield)
Use:Public/Civil, Military, International (customs port of entry)
Latitude:634'39"N (6.577369)
Longitude:319'16"E (3.321156)
Datum:WGS 1984
Elevation:135 ft (41 m)
Variation:2.52W (WMM2015 magnetic declination)
0.10 annual change
Runways:2
Longest:12794 × 197 ft (3900 × 60 m), paved

Time
Time Zone:UTC+1
Local Time:

Weather
METAR:DNMM 300200Z VRB02KT 9999 FEW010 26/25 Q1011 NOSIG
TAF:DNMM 291535Z 2918/3024 22006KT 9999 FEW011
TEMPO 3005/3007 VRB02KT 5000 BR FEW008
BECMG 3008/3010 24008KT 9999 BKN013
TEMPO 3011/3015 FEW021CB

Related Locations
Nearby:
Farthest:FUN: 12133 mi / 19527 km
Funafuti Atoll [Intl], TV

Find:

   beyond  
but within

Other Information
Maps:
NOTAMs:
Links:
Sources:

  
flag of Nigeria   

Sectional Chart

Flight Planning
at skyvector.com

Satellite Image

Google Maps Satellite View

 

Copyright © 2004-2015 Karl L. Swartz. All rights reserved.
The Great Circle Mapper name and logo are trademarks of the Great Circle Mapper.
All other trademarks mentioned herein belong to their respective owners.
Please see credits for attibutions and further copyright information.

  Follow gcmap on Facebook Follow gcmap on Twitter

hCard Microformat

Geo Microformat